Time,TemperatureF,DewpointF,PressureIn,WindDirection,WindDirectionDegrees,WindSpeedMPH,WindSpeedGustMPH,Humidity,HourlyPrecipIn,Conditions,Clouds,dailyrainin,SoftwareType,DateUTC
2013-08-16 00:13:00,51.9,47.0,30.13,South,174,5.0,-999.0,83,-99.99,,,0.00,weatherlink.com 1.10,2013-08-16 04:13:00,
2013-08-16 00:28:00,51.8,47.0,30.13,South,180,2.0,-999.0,84,-99.99,,,0.00,weatherlink.com 1.10,2013-08-16 04:28:00,
2013-08-16 00:43:00,51.5,48.0,30.12,SSW,207,6.0,-999.0,86,-99.99,,,0.00,weatherlink.com 1.10,2013-08-16 04:43:00,
2013-08-16 00:58:00,51.2,47.0,30.11,SSW,196,5.0,-999.0,86,-99.99,,,0.00,weatherlink.com 1.10,2013-08-16 04:58:00,
2013-08-16 01:13:00,51.3,47.0,30.11,South,184,1.0,-999.0,85,-99.99,,,0.00,weatherlink.com 1.10,2013-08-16 05:13:00,
2013-08-16 01:28:00,51.5,47.0,30.11,SSE,165,2.0,-999.0,84,-99.99,,,0.00,weatherlink.com 1.10,2013-08-16 05:28:00,
2013-08-16 01:43:00,51.4,47.0,30.11,SSE,168,0.0,-999.0,84,-99.99,,,0.00,weatherlink.com 1.10,2013-08-16 05:43:00,
2013-08-16 01:58:00,50.9,47.0,30.10,South,180,2.0,-999.0,85,-99.99,,,0.00,weatherlink.com 1.10,2013-08-16 05:58:00,
2013-08-16 02:13:00,50.9,47.0,30.10,SSE,165,1.0,-999.0,85,-99.99,,,0.00,weatherlink.com 1.10,2013-08-16 06:13:00,
2013-08-16 02:28:00,50.3,47.0,30.09,SSW,200,4.0,-999.0,87,-99.99,,,0.00,weatherlink.com 1.10,2013-08-16 06:28:00,
2013-08-16 02:43:00,49.9,47.0,30.09,ESE,122,7.0,-999.0,88,-99.99,,,0.00,weatherlink.com 1.10,2013-08-16 06:43:00,
2013-08-16 02:58:00,49.8,47.0,30.09,SE,127,7.0,-999.0,89,-99.99,,,0.00,weatherlink.com 1.10,2013-08-16 06:58:00,
2013-08-16 03:13:00,49.4,47.0,30.09,SSW,212,4.0,-999.0,90,-99.99,,,0.00,weatherlink.com 1.10,2013-08-16 07:13:00,
2013-08-16 03:28:00,49.8,46.0,30.09,South,186,4.0,-999.0,88,-99.99,,,0.00,weatherlink.com 1.10,2013-08-16 07:28:00,
2013-08-16 03:43:00,49.6,47.0,30.09,SSW,195,6.0,-999.0,89,-99.99,,,0.00,weatherlink.com 1.10,2013-08-16 07:43:00,
2013-08-16 03:58:00,49.4,46.0,30.09,South,169,2.0,-999.0,89,-99.99,,,0.00,weatherlink.com 1.10,2013-08-16 07:58:00,
2013-08-16 04:13:00,48.9,46.0,30.09,SW,217,4.0,-999.0,91,-99.99,,,0.00,weatherlink.com 1.10,2013-08-16 08:13:00,
2013-08-16 04:28:00,48.6,46.0,30.09,South,186,4.0,-999.0,92,-99.99,,,0.00,weatherlink.com 1.10,2013-08-16 08:28:00,
2013-08-16 04:43:00,48.5,46.0,30.09,South,190,4.0,-999.0,92,-99.99,,,0.00,weatherlink.com 1.10,2013-08-16 08:43:00,
2013-08-16 04:58:00,48.5,46.0,30.09,SSW,204,8.0,-999.0,92,-99.99,,,0.00,weatherlink.com 1.10,2013-08-16 08:58:00,
2013-08-16 05:13:00,48.6,46.0,30.09,South,184,4.0,-999.0,91,-99.99,,,0.00,weatherlink.com 1.10,2013-08-16 09:13:00,
2013-08-16 05:28:00,48.3,46.0,30.09,SSW,205,5.0,-999.0,91,-99.99,,,0.00,weatherlink.com 1.10,2013-08-16 09:28:00,
2013-08-16 05:43:00,47.9,46.0,30.09,SSW,194,4.0,-999.0,92,-99.99,,,0.00,weatherlink.com 1.10,2013-08-16 09:43:00,
2013-08-16 05:58:00,48.4,46.0,30.09,SSW,200,8.0,-999.0,91,-99.99,,,0.00,weatherlink.com 1.10,2013-08-16 09:58:00,
2013-08-16 06:13:00,48.7,46.0,30.09,SSW,210,6.0,-999.0,90,-99.99,,,0.00,weatherlink.com 1.10,2013-08-16 10:13:00,
2013-08-16 06:28:00,48.9,46.0,30.09,SSW,205,4.0,-999.0,89,-99.99,,,0.00,weatherlink.com 1.10,2013-08-16 10:28:00,
2013-08-16 06:43:00,49.7,46.0,30.10,SSW,205,3.0,-999.0,86,-99.99,,,0.00,weatherlink.com 1.10,2013-08-16 10:43:00,
2013-08-16 06:58:00,50.7,46.0,30.10,SSW,205,0.0,-999.0,85,-99.99,,,0.00,weatherlink.com 1.10,2013-08-16 10:58:00,
2013-08-16 07:13:00,51.5,47.0,30.10,SSW,205,0.0,-999.0,84,-99.99,,,0.00,weatherlink.com 1.10,2013-08-16 11:13:00,
2013-08-16 07:28:00,52.2,47.0,30.10,SSW,205,0.0,-999.0,83,-99.99,,,0.00,weatherlink.com 1.10,2013-08-16 11:28:00,
2013-08-16 07:43:00,54.8,49.0,30.10,SSW,205,0.0,-999.0,82,-99.99,,,0.00,weatherlink.com 1.10,2013-08-16 11:43:00,
2013-08-16 07:59:00,58.1,50.0,30.10,SSW,205,0.0,-999.0,74,-99.99,,,0.00,weatherlink.com 1.10,2013-08-16 11:59:00,
2013-08-16 08:14:00,59.0,51.0,30.10,SSW,204,0.0,-999.0,75,-99.99,,,0.00,weatherlink.com 1.10,2013-08-16 12:14:00,
2013-08-16 08:29:00,59.2,49.0,30.10,SSW,204,0.0,-999.0,70,-99.99,,,0.00,weatherlink.com 1.10,2013-08-16 12:29:00,
2013-08-16 08:44:00,57.1,50.0,30.11,SSW,204,0.0,-999.0,77,-99.99,,,0.00,weatherlink.com 1.10,2013-08-16 12:44:00,
2013-08-16 08:59:00,57.0,51.0,30.11,SSW,204,1.0,-999.0,79,-99.99,,,0.00,weatherlink.com 1.10,2013-08-16 12:59:00,
2013-08-16 09:14:00,57.1,51.0,30.11,SSW,204,0.0,-999.0,79,-99.99,,,0.00,weatherlink.com 1.10,2013-08-16 13:14:00,
2013-08-16 09:29:00,57.1,50.0,30.11,SSW,209,0.0,-999.0,77,-99.99,,,0.00,weatherlink.com 1.10,2013-08-16 13:29:00,
2013-08-16 09:44:00,58.9,51.0,30.11,East,88,4.0,-999.0,75,-99.99,,,0.00,weatherlink.com 1.10,2013-08-16 13:44:00,
2013-08-16 09:59:00,59.3,50.0,30.11,East,100,5.0,-999.0,72,-99.99,,,0.00,weatherlink.com 1.10,2013-08-16 13:59:00,
2013-08-16 10:14:00,58.4,49.0,30.11,South,169,2.0,-999.0,71,-99.99,,,0.00,weatherlink.com 1.10,2013-08-16 14:14:00,
2013-08-16 10:29:00,58.6,49.0,30.11,SSE,162,2.0,-999.0,71,-99.99,,,0.00,weatherlink.com 1.10,2013-08-16 14:29:00,
2013-08-16 10:44:00,59.5,50.0,30.12,South,173,6.0,-999.0,70,-99.99,,,0.00,weatherlink.com 1.10,2013-08-16 14:44:00,
2013-08-16 10:59:00,59.7,51.0,30.11,ENE,63,8.0,-999.0,73,-99.99,,,0.00,weatherlink.com 1.10,2013-08-16 14:59:00,
2013-08-16 11:14:00,59.2,49.0,30.11,SE,127,6.0,-999.0,70,-99.99,,,0.00,weatherlink.com 1.10,2013-08-16 15:14:00,
2013-08-16 11:29:00,59.4,50.0,30.11,ESE,123,2.0,-999.0,71,-99.99,,,0.00,weatherlink.com 1.10,2013-08-16 15:29:00,
2013-08-16 11:44:00,57.8,48.0,30.11,ENE,63,2.0,-999.0,71,-99.99,,,0.00,weatherlink.com 1.10,2013-08-16 15:44:00,
2013-08-16 11:59:00,58.6,49.0,30.11,SE,142,1.0,-999.0,71,-99.99,,,0.00,weatherlink.com 1.10,2013-08-16 15:59:00,
2013-08-16 12:14:00,58.5,49.0,30.11,ESE,106,5.0,-999.0,71,-99.99,,,0.00,weatherlink.com 1.10,2013-08-16 16:14:00,
2013-08-16 12:29:00,61.0,50.0,30.11,SSE,147,1.0,-999.0,68,-99.99,,,0.00,weatherlink.com 1.10,2013-08-16 16:29:00,
2013-08-16 12:44:00,62.3,49.0,30.11,SSE,153,4.0,-999.0,63,-99.99,,,0.00,weatherlink.com 1.10,2013-08-16 16:44:00,
2013-08-16 12:59:00,63.3,51.0,30.11,SSE,147,7.0,-999.0,65,-99.99,,,0.00,weatherlink.com 1.10,2013-08-16 16:59:00,
2013-08-16 13:14:00,64.0,51.0,30.11,NE,53,5.0,-999.0,64,-99.99,,,0.00,weatherlink.com 1.10,2013-08-16 17:14:00,
2013-08-16 13:29:00,61.4,52.0,30.11,SE,138,6.0,-999.0,70,-99.99,,,0.00,weatherlink.com 1.10,2013-08-16 17:29:00,
2013-08-16 13:44:00,63.7,51.0,30.11,SSE,149,1.0,-999.0,63,-99.99,,,0.00,weatherlink.com 1.10,2013-08-16 17:44:00,
2013-08-16 13:59:00,64.4,50.0,30.11,SSW,194,7.0,-999.0,60,-99.99,,,0.00,weatherlink.com 1.10,2013-08-16 17:59:00,
2013-08-16 14:14:00,64.7,51.0,30.11,East,81,5.0,-999.0,62,-99.99,,,0.00,weatherlink.com 1.10,2013-08-16 18:14:00,
2013-08-16 14:29:00,61.4,51.0,30.11,East,89,2.0,-999.0,69,-99.99,,,0.00,weatherlink.com 1.10,2013-08-16 18:29:00,
2013-08-16 14:44:00,62.0,51.0,30.11,ENE,74,6.0,-999.0,68,-99.99,,,0.00,weatherlink.com 1.10,2013-08-16 18:44:00,
2013-08-16 14:59:00,63.4,50.0,30.10,SW,220,0.0,-999.0,61,-99.99,,,0.00,weatherlink.com 1.10,2013-08-16 18:59:00,
2013-08-16 15:14:00,65.9,52.0,30.10,SSE,149,5.0,-999.0,61,-99.99,,,0.00,weatherlink.com 1.10,2013-08-16 19:14:00,
2013-08-16 15:29:00,65.5,52.0,30.10,SSW,211,4.0,-999.0,61,-99.99,,,0.00,weatherlink.com 1.10,2013-08-16 19:29:00,
2013-08-16 15:44:00,63.0,52.0,30.09,NE,48,4.0,-999.0,67,-99.99,,,0.00,weatherlink.com 1.10,2013-08-16 19:44:00,
2013-08-16 15:59:00,61.6,50.0,30.09,East,79,0.0,-999.0,67,-99.99,,,0.00,weatherlink.com 1.10,2013-08-16 19:59:00,
2013-08-16 16:14:00,61.6,51.0,30.09,ENE,71,0.0,-999.0,69,-99.99,,,0.00,weatherlink.com 1.10,2013-08-16 20:14:00,
2013-08-16 16:29:00,61.7,51.0,30.09,ENE,70,4.0,-999.0,69,-99.99,,,0.00,weatherlink.com 1.10,2013-08-16 20:29:00,
2013-08-16 16:44:00,62.2,52.0,30.09,East,98,1.0,-999.0,69,-99.99,,,0.00,weatherlink.com 1.10,2013-08-16 20:44:00,
2013-08-16 16:59:00,61.9,52.0,30.09,East,81,1.0,-999.0,70,-99.99,,,0.00,weatherlink.com 1.10,2013-08-16 20:59:00,
2013-08-16 17:14:00,63.5,52.0,30.10,SE,130,2.0,-999.0,66,-99.99,,,0.00,weatherlink.com 1.10,2013-08-16 21:14:00,
2013-08-16 17:29:00,64.2,52.0,30.10,SE,133,1.0,-999.0,64,-99.99,,,0.00,weatherlink.com 1.10,2013-08-16 21:29:00,
2013-08-16 17:44:00,63.3,52.0,30.10,SE,134,1.0,-999.0,66,-99.99,,,0.00,weatherlink.com 1.10,2013-08-16 21:44:00,
2013-08-16 17:59:00,61.5,52.0,30.11,East,83,2.0,-999.0,70,-99.99,,,0.00,weatherlink.com 1.10,2013-08-16 21:59:00,
2013-08-16 18:14:00,61.6,52.0,30.10,SE,129,4.0,-999.0,71,-99.99,,,0.00,weatherlink.com 1.10,2013-08-16 22:14:00,
2013-08-16 18:29:00,61.4,53.0,30.10,South,172,2.0,-999.0,73,-99.99,,,0.00,weatherlink.com 1.10,2013-08-16 22:29:00,
2013-08-16 18:44:00,61.9,54.0,30.10,East,86,0.0,-999.0,74,-99.99,,,0.00,weatherlink.com 1.10,2013-08-16 22:44:00,
2013-08-16 18:59:00,60.3,53.0,30.10,East,85,1.0,-999.0,76,-99.99,,,0.00,weatherlink.com 1.10,2013-08-16 22:59:00,
2013-08-16 19:14:00,59.6,52.0,30.10,SE,139,1.0,-999.0,77,-99.99,,,0.00,weatherlink.com 1.10,2013-08-16 23:14:00,
2013-08-16 19:29:00,59.0,53.0,30.10,ESE,107,0.0,-999.0,79,-99.99,,,0.00,weatherlink.com 1.10,2013-08-16 23:29:00,
2013-08-16 19:44:00,58.5,52.0,30.11,SE,130,4.0,-999.0,80,-99.99,,,0.00,weatherlink.com 1.10,2013-08-16 23:44:00,
2013-08-16 19:59:00,57.9,52.0,30.11,SE,135,2.0,-999.0,82,-99.99,,,0.00,weatherlink.com 1.10,2013-08-16 23:59:00,
2013-08-16 20:14:00,57.4,52.0,30.11,SSE,163,0.0,-999.0,83,-99.99,,,0.00,weatherlink.com 1.10,2013-08-17 00:14:00,
2013-08-16 20:29:00,56.9,52.0,30.11,East,79,4.0,-999.0,84,-99.99,,,0.00,weatherlink.com 1.10,2013-08-17 00:29:00,
2013-08-16 20:44:00,56.4,52.0,30.12,ESE,111,1.0,-999.0,84,-99.99,,,0.00,weatherlink.com 1.10,2013-08-17 00:44:00,
2013-08-16 20:59:00,55.8,51.0,30.12,ESE,113,4.0,-999.0,85,-99.99,,,0.00,weatherlink.com 1.10,2013-08-17 00:59:00,
2013-08-16 21:14:00,55.3,52.0,30.12,East,79,5.0,-999.0,87,-99.99,,,0.00,weatherlink.com 1.10,2013-08-17 01:14:00,
2013-08-16 21:29:00,55.0,51.0,30.13,ESE,102,1.0,-999.0,87,-99.99,,,0.00,weatherlink.com 1.10,2013-08-17 01:29:00,
2013-08-16 21:44:00,54.2,51.0,30.13,East,84,5.0,-999.0,89,-99.99,,,0.00,weatherlink.com 1.10,2013-08-17 01:44:00,
2013-08-16 21:59:00,53.7,51.0,30.14,East,91,8.0,-999.0,90,-99.99,,,0.00,weatherlink.com 1.10,2013-08-17 01:59:00,
2013-08-16 22:14:00,53.5,51.0,30.14,ENE,75,7.0,-999.0,90,-99.99,,,0.00,weatherlink.com 1.10,2013-08-17 02:14:00,
2013-08-16 22:29:00,52.9,50.0,30.13,ENE,76,5.0,-999.0,91,-99.99,,,0.00,weatherlink.com 1.10,2013-08-17 02:29:00,
2013-08-16 22:44:00,52.8,50.0,30.14,East,98,4.0,-999.0,91,-99.99,,,0.00,weatherlink.com 1.10,2013-08-17 02:44:00,
2013-08-16 22:59:00,52.5,50.0,30.14,East,88,7.0,-999.0,91,-99.99,,,0.00,weatherlink.com 1.10,2013-08-17 02:59:00,
2013-08-16 23:14:00,52.1,50.0,30.14,East,96,2.0,-999.0,92,-99.99,,,0.00,weatherlink.com 1.10,2013-08-17 03:14:00,
2013-08-16 23:29:00,52.0,50.0,30.14,East,95,5.0,-999.0,93,-99.99,,,0.00,weatherlink.com 1.10,2013-08-17 03:29:00,
2013-08-16 23:44:00,51.4,50.0,30.14,East,101,5.0,-999.0,93,-99.99,,,0.00,weatherlink.com 1.10,2013-08-17 03:44:00,
2013-08-16 23:59:00,51.2,50.0,30.14,ESE,121,5.0,-999.0,94,-99.99,,,0.00,weatherlink.com 1.10,2013-08-17 03:59:00,